World > North America > United States > Minnesota > Ponto Lake  

Ponto Lake, MN Hourly Weather Updates

Feedback E-mail the Weather

Quick Clicks

Ponto Lake, MN Weather Maps

°F °C°F °C
Ponto Lake Weather Map
UTC Time: 4/13/2024, 00:57
Your Time:

Ponto Lake, MN Regional Weather

Expires:202404130100;;641961
ASUS43 KMPX 130010
RWRMN 
WEATHER ROUNDUP FOR MINNESOTA
NATIONAL WEATHER SERVICE TWIN CITIES/CHANHASSEN MN
700 PM CDT FRI APR 12 2024


NOTE: "FAIR" INDICATES FEW OR NO CLOUDS BELOW 12,000 FEET WITH NO
SIGNIFICANT WEATHER AND/OR OBSTRUCTIONS TO VISIBILITY. N/A MEANS
CURRENT SKY AND/OR WEATHER CONDITIONS ARE NOT AVAILABLE.


MNZ033>034-036-042>043-049>051-058-059-130100-
   Central Minnesota     
  
CITY           SKY/WX    TMP DP  RH WIND       PRES   REMARKS
ST CLOUD       FAIR      59  28  30 NW14      30.01S                  
6HR MIN TEMP:  57; 6HR MAX TEMP:  62;                                

SAUK CENTRE    FAIR      56  30  37 NW7       30.03R                  
PAYNESVILLE    FAIR      57  28  33 W9        30.04R                  
AITKIN         FAIR      54  27  35 N10       30.00F                  
PINE RIVER     FAIR      55  30  38 NW5       30.04S                  
BRAINERD       FAIR      58  26  29 NW7       30.00F                  
STAPLES        FAIR      57  27  30 NW9       30.01F                  
LONG PRAIRIE   FAIR      55  28  35 NW8       30.03S                  
LITTLE FALLS   FAIR      55  27  33 W9        30.01S                  
CAMP RIPLEY    FAIR      58  27  30 NW13      29.99S                  
LITCHFIELD     FAIR      57  23  26 NW7       30.02S                  
BUFFALO        FAIR      57  30  35 NW10      30.01S                  
MAPLE LAKE     FAIR      58  26  29 W7        30.03S                  
HUTCHINSON     FAIR      59  23  24 NW9       30.04S                  
$$

SKY/WX - Weather  TMP - Temperature  DP - Dew Point  RH - Humidity
WIND - Wind Direction/Speed PRES - Barometric Pressure VSB - Visibility
WCI - Wind Chill Index E13G22 Wind - East Wind 13 mph/Gusts of 22 mph

Trending Headlines

Trending Entertainment Headlines

Ponto Lake Radar Loop

Use the map search tool if you want to place a location marker on the radar map...

Ponto Lake Quick Facts

National Two Day Weather Forecast


E-mail the Ponto Lake Weather Forecast

Voice your opinion or tell us about page issues...